When you browse on this site, cookies collect data to enhance your experience and personalize the content and advertising you see.
Visit our Privacy Policy to learn more. By continuing to use the site, you agree to this use of cookies and data.
  • In Germany
  • List of Countries
  • For 7 days
  • Water Temperature
  • Satellite Maps
  • Weather Map
  • Weather Widgets
  • user-avatar
    Login

    Hourly Weather Mansa

    Today, 17 November, Saturday

    Time Temperature Precipitation Wind Pressure Humidity
    00:00 +22°C° 0 mm 1 mps 660 mmHg 77%
    01:00 +22°C° 0 mm 1 mps 660 mmHg 78%
    02:00 +22°C° 0 mm 1 mps 660 mmHg 79%
    03:00 +21°C° 0 mm 1 mps 660 mmHg 80%
    04:00 +21°C° 0 mm 1 mps 660 mmHg 81%
    05:00 +21°C° 0 mm 1 mps 660 mmHg 82%
    06:00 +22°C° 0 mm 1 mps 660 mmHg 76%
    07:00 +23°C° 0 mm 1 mps 661 mmHg 70%
    08:00 +25°C° 0 mm 1 mps 662 mmHg 65%
    09:00 +26°C° 0 mm 1 mps 662 mmHg 57%
    10:00 +28°C° 0 mm 2 mps 662 mmHg 50%
    11:00 +30°C° 0 mm 2 mps 662 mmHg 43%
    12:00 +30°C° 0 mm 2 mps 662 mmHg 41%
    13:00 +31°C° 0 mm 2 mps 661 mmHg 39%
    14:00 +31°C° 0 mm 2 mps 661 mmHg 37%
    15:00 +30°C° 0 mm 2 mps 661 mmHg 41%
    16:00 +29°C° 0 mm 1 mps 660 mmHg 45%
    17:00 +29°C° 0 mm 1 mps 660 mmHg 49%
    18:00 +27°C° 0.1 mm 1 mps 660 mmHg 56%
    19:00 +26°C° 0.1 mm 1 mps 660 mmHg 62%
    20:00 +24°C° 0.1 mm 2 mps 660 mmHg 69%
    21:00 +23°C° 0.6 mm 1 mps 660 mmHg 74%
    22:00 +23°C° 0.6 mm 1 mps 660 mmHg 79%
    23:00 +22°C° 0.6 mm 1 mps 661 mmHg 84%

    Tomorrow, 18 November, Sunday

    Time Temperature Precipitation Wind Pressure Humidity
    00:00 +22°C° 1.1 mm 1 mps 660 mmHg 86%
    01:00 +22°C° 1.1 mm 1 mps 660 mmHg 88%
    02:00 +22°C° 1.1 mm 1 mps 659 mmHg 90%
    03:00 +21°C° 0.4 mm 1 mps 659 mmHg 90%
    04:00 +19°C° 0.4 mm 0 mps 659 mmHg 90%
    05:00 +19°C° 0.4 mm 0 mps 659 mmHg 90%
    06:00 +22°C° 0.1 mm 1 mps 660 mmHg 86%
    07:00 +23°C° 0.1 mm 1 mps 660 mmHg 81%
    08:00 +24°C° 0.1 mm 1 mps 661 mmHg 77%
    09:00 +26°C° 1.3 mm 1 mps 661 mmHg 71%
    10:00 +27°C° 1.3 mm 1 mps 661 mmHg 65%
    11:00 +29°C° 1.3 mm 1 mps 661 mmHg 58%
    12:00 +28°C° 1 mm 2 mps 660 mmHg 60%
    13:00 +28°C° 1 mm 2 mps 659 mmHg 62%
    14:00 +27°C° 1 mm 2 mps 659 mmHg 64%
    15:00 +27°C° 0.3 mm 2 mps 658 mmHg 66%
    16:00 +26°C° 0.3 mm 2 mps 658 mmHg 67%
    17:00 +26°C° 0.3 mm 2 mps 657 mmHg 68%
    18:00 +25°C° 0.1 mm 2 mps 658 mmHg 72%
    19:00 +23°C° 0.1 mm 2 mps 658 mmHg 76%
    20:00 +22°C° 0.1 mm 1 mps 659 mmHg 80%
    21:00 +22°C° 0.5 mm 1 mps 659 mmHg 81%
    22:00 +22°C° 0.5 mm 1 mps 660 mmHg 83%
    23:00 +22°C° 0.5 mm 1 mps 660 mmHg 84%

    Day after tomorrow, 19 November, Monday

    Time Temperature Precipitation Wind Pressure Humidity
    00:00 +21°C° 1.7 mm 2 mps 660 mmHg 86%
    01:00 +20°C° 1.7 mm 2 mps 659 mmHg 88%
    02:00 +20°C° 1.7 mm 2 mps 659 mmHg 89%
    03:00 +20°C° 0.1 mm 2 mps 659 mmHg 89%
    04:00 +20°C° 0.1 mm 1 mps 659 mmHg 88%
    05:00 +20°C° 0.1 mm 1 mps 659 mmHg 87%
    06:00 +21°C° 0.1 mm 1 mps 659 mmHg 85%
    07:00 +22°C° 0.1 mm 1 mps 660 mmHg 82%
    08:00 +23°C° 0.1 mm 1 mps 661 mmHg 80%
    09:00 +24°C° 0.4 mm 2 mps 661 mmHg 73%
    10:00 +26°C° 0.4 mm 3 mps 662 mmHg 66%
    11:00 +28°C° 0.4 mm 3 mps 662 mmHg 60%
    12:00 +28°C° 0.1 mm 3 mps 661 mmHg 56%
    13:00 +28°C° 0.1 mm 3 mps 660 mmHg 53%
    14:00 +29°C° 0.1 mm 3 mps 660 mmHg 50%
    15:00 +28°C° 0 mm 3 mps 659 mmHg 52%
    16:00 +28°C° 0 mm 3 mps 659 mmHg 54%
    17:00 +27°C° 0 mm 3 mps 659 mmHg 56%
    18:00 +26°C° 0 mm 2 mps 659 mmHg 62%
    19:00 +24°C° 0 mm 2 mps 659 mmHg 68%
    20:00 +23°C° 0 mm 1 mps 660 mmHg 73%
    21:00 +22°C° 0 mm 1 mps 660 mmHg 76%
    22:00 +22°C° 0 mm 1 mps 660 mmHg 78%
    23:00 +22°C° 0 mm 1 mps 660 mmHg 80%

    20 November, Tuesday

    Time Temperature Precipitation Wind Pressure Humidity
    00:00 +21°C° 0 mm 1 mps 659 mmHg 81%
    01:00 +21°C° 0 mm 1 mps 659 mmHg 82%
    02:00 +21°C° 0 mm 1 mps 658 mmHg 83%
    03:00 +21°C° 0 mm 1 mps 658 mmHg 84%
    04:00 +18°C° 0 mm 0 mps 659 mmHg 85%
    05:00 +18°C° 0 mm 0 mps 659 mmHg 86%
    06:00 +20°C° 0 mm 0 mps 660 mmHg 78%
    07:00 +22°C° 0 mm 0 mps 661 mmHg 71%
    08:00 +24°C° 0 mm 0 mps 662 mmHg 64%
    09:00 +28°C° 0 mm 1 mps 662 mmHg 56%
    10:00 +30°C° 0 mm 1 mps 662 mmHg 48%
    11:00 +32°C° 0 mm 1 mps 662 mmHg 40%
    12:00 +32°C° 0 mm 1 mps 661 mmHg 40%
    13:00 +32°C° 0 mm 1 mps 660 mmHg 40%
    14:00 +32°C° 0 mm 1 mps 659 mmHg 40%
    15:00 +31°C° 0 mm 1 mps 659 mmHg 42%
    16:00 +31°C° 0 mm 1 mps 659 mmHg 44%
    17:00 +30°C° 0 mm 1 mps 659 mmHg 46%
    18:00 +29°C° 0 mm 1 mps 659 mmHg 50%
    19:00 +27°C° 0 mm 1 mps 659 mmHg 54%
    20:00 +26°C° 0 mm 1 mps 659 mmHg 58%
    21:00 +25°C° 0.3 mm 1 mps 659 mmHg 63%
    22:00 +24°C° 0.3 mm 1 mps 659 mmHg 68%
    23:00 +23°C° 0.3 mm 1 mps 659 mmHg 73%

    21 November, Wednesday

    Time Temperature Precipitation Wind Pressure Humidity
    00:00 +23°C° 0.9 mm 1 mps 659 mmHg 77%
    01:00 +22°C° 0.9 mm 1 mps 659 mmHg 81%
    02:00 +19°C° 0.9 mm 0 mps 658 mmHg 86%
    03:00 +19°C° 0.4 mm 0 mps 658 mmHg 86%
    04:00 +19°C° 0.4 mm 0 mps 658 mmHg 87%
    05:00 +19°C° 0.4 mm 0 mps 658 mmHg 88%
    06:00 +21°C° 0.2 mm 0 mps 659 mmHg 82%
    07:00 +22°C° 0.2 mm 0 mps 660 mmHg 77%
    08:00 +23°C° 0.2 mm 0 mps 661 mmHg 72%
    09:00 +26°C° 0.2 mm 0 mps 661 mmHg 64%
    10:00 +28°C° 0.2 mm 0 mps 661 mmHg 55%
    11:00 +30°C° 0.2 mm 0 mps 662 mmHg 47%
    12:00 +33°C° 0.3 mm 1 mps 661 mmHg 44%
    13:00 +33°C° 0.3 mm 1 mps 660 mmHg 41%
    14:00 +33°C° 0.3 mm 1 mps 659 mmHg 38%
    15:00 +32°C° 0 mm 1 mps 659 mmHg 41%
    16:00 +31°C° 0 mm 2 mps 658 mmHg 44%
    17:00 +30°C° 0 mm 2 mps 658 mmHg 47%
    18:00 +28°C° 0.3 mm 2 mps 658 mmHg 53%
    19:00 +26°C° 0.3 mm 2 mps 658 mmHg 60%
    20:00 +24°C° 0.3 mm 2 mps 658 mmHg 67%
    21:00 +24°C° 0.4 mm 2 mps 658 mmHg 70%
    22:00 +23°C° 0.4 mm 2 mps 658 mmHg 74%
    23:00 +21°C° 0.4 mm 2 mps 659 mmHg 77%

    22 November, Thursday

    Time Temperature Precipitation Wind Pressure Humidity
    00:00 +21°C° 0 mm 2 mps 658 mmHg 80%
    01:00 +22°C° 0 mm 1 mps 658 mmHg 83%
    02:00 +21°C° 0 mm 1 mps 657 mmHg 86%
    03:00 +21°C° 0 mm 1 mps 657 mmHg 88%
    04:00 +21°C° 0 mm 1 mps 658 mmHg 90%
    05:00 +21°C° 0 mm 1 mps 658 mmHg 91%
    06:00 +23°C° 0 mm 1 mps 659 mmHg 83%
    07:00 +24°C° 0 mm 1 mps 659 mmHg 75%
    08:00 +26°C° 0 mm 1 mps 660 mmHg 67%
    09:00 +28°C° 0 mm 1 mps 660 mmHg 58%
    10:00 +31°C° 0 mm 1 mps 661 mmHg 48%
    11:00 +34°C° 0 mm 1 mps 661 mmHg 39%
    12:00 +34°C° 0 mm 1 mps 660 mmHg 38%
    13:00 +32°C° 0 mm 0 mps 659 mmHg 36%
    14:00 +32°C° 0 mm 0 mps 659 mmHg 35%
    15:00 +31°C° 0 mm 0 mps 658 mmHg 37%
    16:00 +30°C° 0 mm 0 mps 658 mmHg 39%
    17:00 +31°C° 0 mm 1 mps 657 mmHg 41%
    18:00 +27°C° 0 mm 0 mps 658 mmHg 44%
    19:00 +26°C° 0 mm 0 mps 658 mmHg 47%
    20:00 +24°C° 0 mm 0 mps 658 mmHg 50%
    21:00 +24°C° 0 mm 0 mps 658 mmHg 53%
    22:00 +25°C° 0 mm 1 mps 658 mmHg 56%
    23:00 +25°C° 0 mm 1 mps 658 mmHg 59%
    Show more